Weather reports worldwide

Advertisment
Magdeburg, Germany (10361): temperature & dewpoint: 15.06.2018 23:00:00 - 21.06.2018 23:00:00 (CEST)Magdeburg, Germany (10361): temperature 5cm & temperature -5cm: 15.06.2018 23:00:00 - 21.06.2018 23:00:00 (CEST)Magdeburg, Germany (10361): temperature -20cm & temperature -100cm: 15.06.2018 23:00:00 - 21.06.2018 23:00:00 (CEST)Magdeburg, Germany (10361): wind speed & gusts: 15.06.2018 23:00:00 - 21.06.2018 23:00:00 (CEST)Magdeburg, Germany (10361): wind direction: 15.06.2018 23:00:00 - 21.06.2018 23:00:00 (CEST)Magdeburg, Germany (10361): reduced air pressure: 15.06.2018 23:00:00 - 21.06.2018 23:00:00 (CEST)Magdeburg, Germany (10361): visibility: 15.06.2018 23:00:00 - 21.06.2018 23:00:00 (CEST)Magdeburg, Germany (10361): sunshine duration: 15.06.2018 23:00:00 - 21.06.2018 23:00:00 (CEST)Magdeburg, Germany (10361): precipitation: 15.06.2018 23:00:00 - 21.06.2018 23:00:00 (CEST)
Date & Time tt [°C] td [°C] tt 5cm [°C] tt -5cm [°C] tt -20cm [°C] tt -100cm [°C] ff [km/h] ff [kn] fx [km/h] fx [kn] dd ppp [hPa] vv [km] sd [min] rr [mm]
21.06.2018 23:00:00 12,0 6,9 10,5 18,1 22,4 17,7 10 5 23 12 W 1018,7 70 0 0,0
21.06.2018 22:00:00 12,4 6,9 10,6 19,0 22,7 17,7 8 5 36 19 W 1018,4 70 1 0,0
21.06.2018 21:00:00 13,7 6,2 12,5 20,5 22,8 17,7 12 6 39 21 WNW 1017,5 70 54 0,0
21.06.2018 20:00:00 15,1 5,9 15,9 22,5 22,9 17,7 16 9 48 26 WNW 1016,9 32 38 0,0
21.06.2018 19:00:00 16,2 5,4 17,3 24,1 22,9 17,7 16 8 49 27 NW 1016,4 18 54 0,0
21.06.2018 18:00:00 17,7 4,3 19,4 25,0 22,8 17,7 20 11 50 27 WNW 1015,4 18 59 0,0
21.06.2018 17:00:00 16,6 6,5 18,7 24,7 22,8 17,7 26 14 62 34 W 1015,2 9 51 0,0
21.06.2018 16:00:00 17,3 9,2 20,1 23,6 22,9 17,7 23 12 52 28 W 1014,5 16 30 0,0
21.06.2018 15:00:00 16,1 10,5 15,9 22,7 23,0 17,7 26 14 51 27 W 1013,4 21 11 0,0
21.06.2018 14:00:00 15,6 12,3 16,4 22,5 23,1 17,7 12 6 30 16 W 1013,2 54 3 0,2
21.06.2018 13:00:00 15,1 13,7 15,0 23,4 23,0 17,7 7 4 38 20 NW 1012,6 8 0 0,8
21.06.2018 12:00:00 17,1 12,2 17,3 27,0 22,7 17,7 20 11 53 28 NW 1011,4 48 14 0,0
21.06.2018 11:00:00 24,7 15,2 27,7 27,7 22,4 17,7 19 11 33 18 WSW 1009,0 26 48 0,0
21.06.2018 10:00:00 23,3 15,1 25,6 25,4 22,3 17,7 15 8 27 15 SW 1009,6 16 51 0,0
21.06.2018 09:00:00 21,9 14,2 22,6 23,4 22,3 17,7 14 8 28 15 WSW 1010,8 16 41 0,0
21.06.2018 08:00:00 19,4 14,7 19,6 21,3 22,4 17,7 6 3 12 6 WSW 1011,7 29 4 0,0
21.06.2018 07:00:00 19,1 14,5 18,2 20,1 22,7 17,7 7 4 11 6 SW 1012,1 30 36 0,0
21.06.2018 06:00:00 17,5 13,8 15,0 19,4 23,0 17,7 7 4 14 8 SW 1012,6 33 15 0,0
21.06.2018 05:00:00 16,7 13,7 11,6 19,9 23,3 17,7 6 3 11 6 SSW 1013,0 25 0 0,0
21.06.2018 04:00:00 18,4 14,3 15,9 20,7 23,7 17,7 8 4 13 7 W 1014,2 31 0 0,0
21.06.2018 03:00:00 18,3 14,2 15,5 20,7 24,1 17,7 7 4 10 5 WSW 1014,6 31 0 0,0
21.06.2018 02:00:00 17,6 14,3 13,2 21,3 24,5 17,7 4 2 10 5 S 1015,0 32 0 0,0
21.06.2018 01:00:00 17,4 14,9 12,6 21,9 24,9 17,7 5 3 7 4 WSW 1015,5 29 0 0,0
21.06.2018 00:00:00 18,2 15,5 13,1 22,9 25,3 17,7 4 2 6 3 WSW 1016,0 30 0 0,0
20.06.2018 23:00:00 19,4 15,4 14,4 24,2 25,6 17,7 4 2 7 4 W 1016,2 37 0 0,0
20.06.2018 22:00:00 21,2 15,5 15,7 26,1 25,8 17,7 3 2 10 5 W 1016,5 42 13 0,0
20.06.2018 21:00:00 24,4 15,2 21,7 28,5 25,8 17,7 4 2 14 8 NW 1016,4 48 60 0,0
20.06.2018 20:00:00 26,6 15,5 27,1 31,3 25,6 17,7 8 4 21 11 W 1016,4 55 60 0,0
20.06.2018 19:00:00 27,6 15,8 29,5 33,2 25,3 17,7 7 4 17 9 NW 1016,9 43 60 0,0
20.06.2018 18:00:00 27,5 15,6 30,5 34,3 24,8 17,7 8 5 22 12 WNW 1017,5 20 60 0,0
20.06.2018 17:00:00 27,4 15,5 31,8 34,6 24,3 17,7 9 5 23 13 WSW 1018,2 23 55 0,0
20.06.2018 16:00:00 26,6 16,0 31,3 33,6 23,8 17,7 13 7 25 13 WSW 1018,8 21 51 0,0
20.06.2018 15:00:00 24,9 14,9 27,9 30,9 23,4 17,7 10 5 20 11 SW 1019,7 33 4 0,0
20.06.2018 14:00:00 24,5 15,2 27,2 29,7 23,1 17,7 9 5 23 12 SW 1020,4 35 1 0,0
20.06.2018 13:00:00 23,9 15,3 27,1 28,7 22,8 17,6 9 5 19 10 SW 1021,2 40 3 0,0
20.06.2018 12:00:00 22,8 15,8 24,5 27,4 22,4 17,6 13 7 23 13 SW 1021,8 26 1 0,0
20.06.2018 11:00:00 22,5 15,4 24,8 27,6 22,1 17,6 10 6 21 11 WSW 1022,1 26 23 0,0
20.06.2018 10:00:00 22,1 15,6 25,4 26,5 21,9 17,6 11 6 18 10 SSW 1022,5 14 30 0,0
20.06.2018 09:00:00 21,6 16,1 23,8 24,1 21,8 17,6 6 4 14 8 S 1022,7 18 56 0,0
20.06.2018 08:00:00 19,7 16,0 21,5 21,6 21,9 17,6 6 3 11 6 SSW 1022,9 9 20 0,0
20.06.2018 07:00:00 18,2 15,6 18,5 20,6 22,0 17,6 4 2 10 5 SSW 1023,2 11 0 0,0
20.06.2018 06:00:00 17,4 15,4 16,9 20,2 22,2 17,6 6 3 11 6 SSW 1023,3 10 0 0,0
20.06.2018 05:00:00 17,2 15,4 16,2 20,2 22,4 17,6 3 2 8 4 SSW 1023,3 12 0 0,0
20.06.2018 04:00:00 17,1 15,3 16,3 20,2 22,6 17,6 5 3 9 5 SW 1023,4 11 0 0,0
20.06.2018 03:00:00 16,6 14,7 15,5 20,2 22,9 17,6 3 1 3 2 S 1023,5 12 0 0,0
20.06.2018 02:00:00 17,0 15,1 15,2 20,1 23,3 17,6 0 0 7 4 N 1023,6 13 0 0,0
20.06.2018 01:00:00 15,8 14,9 11,8 20,2 23,6 17,6 4 2 6 4 WSW 1023,6 11 0 0,0
20.06.2018 00:00:00 16,4 14,8 12,3 21,0 24,0 17,6 4 2 7 4 W 1023,5 11 0 0,0
19.06.2018 23:00:00 17,4 15,0 13,6 22,1 24,3 17,6 4 2 10 5 WNW 1023,3 15 0 0,0
19.06.2018 22:00:00 18,9 15,3 14,8 23,5 24,5 17,6 6 3 10 5 W 1022,8 22 1 0,0
19.06.2018 21:00:00 20,9 15,3 19,4 25,3 24,6 17,6 4 2 19 10 WNW 1022,5 33 60 0,0
19.06.2018 20:00:00 22,5 15,2 23,1 27,0 24,6 17,6 8 5 24 13 WNW 1022,4 42 15 0,0
19.06.2018 19:00:00 22,0 15,1 22,7 27,5 24,6 17,6 10 5 28 15 W 1022,4 43 0 0,0
19.06.2018 18:00:00 22,5 15,3 23,3 28,6 24,5 17,6 9 5 27 14 WNW 1022,4 60 0 0,0
19.06.2018 17:00:00 22,9 15,4 24,5 29,1 24,3 17,6 13 7 32 17 W 1022,3 37 1 0,0
19.06.2018 16:00:00 23,2 15,2 25,0 29,7 24,0 17,6 12 6 25 13 W 1022,0 40 0 0,0
19.06.2018 15:00:00 23,2 14,7 25,2 30,6 23,7 17,6 11 6 29 16 WNW 1021,8 45 4 0,0
19.06.2018 14:00:00 22,9 15,1 25,8 30,3 23,3 17,6 13 7 28 15 W 1021,7 41 3 0,0
19.06.2018 13:00:00 22,4 14,7 25,5 29,0 23,0 17,6 17 9 32 17 W 1021,6 33 5 0,0
19.06.2018 12:00:00 22,5 13,6 24,7 28,0 22,7 17,6 13 7 27 15 W 1021,4 35 0 0,0
19.06.2018 11:00:00 22,0 13,1 24,5 26,6 22,5 17,6 13 7 23 13 W 1021,0 45 0 0,0
19.06.2018 10:00:00 21,1 12,4 23,3 25,9 22,3 17,6 12 7 25 14 WSW 1021,0 30 18 0,0
19.06.2018 09:00:00 20,3 13,0 23,1 24,0 22,3 17,6 15 8 27 15 W 1020,9 9 60 0,0
19.06.2018 08:00:00 19,2 13,6 20,8 21,9 22,5 17,6 10 6 25 13 W 1020,9 9 60 0,0
19.06.2018 07:00:00 18,0 13,6 18,1 20,6 22,7 17,6 10 6 26 14 W 1021,0 11 49 0,0
19.06.2018 06:00:00 17,0 14,5 15,8 20,7 22,9 17,6 7 4 16 9 W 1020,5 13 0 0,0
19.06.2018 05:00:00 17,3 14,7 16,2 20,9 23,2 17,6 4 2 18 10 NW 1020,1 28 0 0,0
19.06.2018 04:00:00 18,9 13,9 18,0 21,3 23,5 17,6 10 5 19 10 W 1019,6 55 0 0,0
19.06.2018 03:00:00 17,6 14,0 15,2 21,5 23,7 17,5 8 4 12 6 SSW 1019,7 53 0 0,0
19.06.2018 02:00:00 18,5 14,3 16,8 22,2 24,0 17,5 6 3 12 7 SSW 1019,8 52 0 0,0
19.06.2018 01:00:00 19,2 14,4 18,1 23,0 24,3 17,5 6 3 15 8 WSW 1019,9 63 0 0,0
19.06.2018 00:00:00 19,8 14,1 18,6 23,6 24,6 17,5 8 4 16 9 WSW 1019,9 58 0 0,0
18.06.2018 23:00:00 20,2 13,8 19,2 24,3 24,8 17,5 8 4 17 9 W 1019,9 70 0 0,0
18.06.2018 22:00:00 20,7 14,0 18,9 25,4 25,0 17,5 4 2 11 6 WSW 1019,5 69 0 0,0
18.06.2018 21:00:00 21,7 13,5 20,6 26,8 25,1 17,5 6 4 12 6 SW 1019,0 70 11 0,0
18.06.2018 20:00:00 22,3 13,0 21,5 28,9 25,0 17,5 8 5 21 11 W 1018,9 70 45 0,0
18.06.2018 19:00:00 22,5 13,8 23,4 29,9 24,9 17,5 8 4 24 13 SW 1019,1 62 31 0,0
18.06.2018 18:00:00 22,6 13,0 25,1 30,2 24,7 17,5 12 7 27 14 WSW 1019,4 33 11 0,0
18.06.2018 17:00:00 22,6 13,0 26,3 30,6 24,4 17,5 11 6 23 12 WSW 1019,6 41 6 0,0
18.06.2018 16:00:00 22,9 14,1 27,3 32,1 24,0 17,5 12 7 29 16 WSW 1019,8 25 22 0,0
18.06.2018 15:00:00 22,8 12,9 28,5 32,6 23,5 17,5 11 6 31 17 W 1019,8 20 32 0,0
18.06.2018 14:00:00 21,4 10,8 23,7 32,0 22,9 17,5 15 8 28 15 WSW 1020,1 32 31 0,0
18.06.2018 13:00:00 22,1 11,5 27,5 31,6 22,4 17,5 12 7 27 14 SW 1020,1 21 54 0,0
18.06.2018 12:00:00 20,4 10,9 25,8 29,0 22,0 17,5 17 9 26 14 SW 1020,3 15 33 0,0
18.06.2018 11:00:00 19,7 10,8 23,2 26,3 21,7 17,5 12 6 26 14 WSW 1020,7 18 0 0,0
18.06.2018 10:00:00 19,2 10,3 23,1 25,5 21,5 17,5 10 5 20 11 WSW 1020,5 27 52 0,0
18.06.2018 09:00:00 17,9 10,9 20,9 22,6 21,5 17,5 9 5 17 9 W 1020,2 12 60 0,0
18.06.2018 08:00:00 16,7 11,6 17,6 20,4 21,6 17,5 8 4 13 7 W 1020,3 18 6 0,0
18.06.2018 07:00:00 15,7 11,3 15,8 19,2 21,8 17,5 5 3 11 6 W 1020,0 26 0 0,0
18.06.2018 06:00:00 15,2 11,1 14,5 19,1 22,1 17,5 6 4 11 6 WSW 1020,1 27 0 0,0
18.06.2018 05:00:00 15,0 11,0 13,7 19,3 22,3 17,5 4 2 8 4 WSW 1019,7 38 0 0,0
18.06.2018 04:00:00 15,4 11,0 14,0 19,6 22,6 17,5 3 1 11 6 NW 1019,3 46 0 0,0
18.06.2018 03:00:00 15,8 10,5 14,7 19,9 22,9 17,5 5 3 10 5 W 1019,5 45 0 0,0
18.06.2018 02:00:00 14,9 10,4 13,7 19,9 23,3 17,5 4 2 11 6 WSW 1019,2 34 0 0,0
18.06.2018 01:00:00 14,9 10,1 12,4 20,2 23,7 17,5 3 2 10 6 WNW 1018,8 41 0 0,0
18.06.2018 00:00:00 15,4 10,7 11,5 21,2 24,0 17,5 5 3 9 5 W 1018,5 42 0 0,0
17.06.2018 23:00:00 16,3 10,5 13,3 22,3 24,3 17,5 3 2 10 5 WNW 1018,3 51 0 0,0
17.06.2018 22:00:00 18,3 10,2 16,6 23,7 24,6 17,5 4 2 11 6 NW 1017,9 12 0 0,0
17.06.2018 21:00:00 19,9 10,3 18,8 25,2 24,7 17,5 4 2 19 10 NW 1017,4 58 0 0,0
17.06.2018 20:00:00 21,1 10,0 20,8 26,7 24,8 17,5 8 4 24 13 NW 1017,0 57 1 0,0
17.06.2018 19:00:00 21,8 9,6 22,2 28,8 24,7 17,5 9 5 29 16 NW 1016,6 38 22 0,0
17.06.2018 18:00:00 22,9 9,2 24,3 30,2 24,5 17,5 10 5 29 16 NW 1016,3 46 45 0,0
17.06.2018 17:00:00 22,5 9,5 23,9 30,1 24,2 17,5 11 6 31 17 WNW 1016,2 53 17 0,0
17.06.2018 16:00:00 22,9 9,6 25,1 30,5 23,9 17,5 16 9 33 18 W 1015,9 33 20 0,0
17.06.2018 15:00:00 22,8 9,7 24,8 31,6 23,4 17,5 16 9 34 19 W 1015,7 31 34 0,0
17.06.2018 14:00:00 22,7 10,5 26,8 30,3 23,0 17,5 18 10 33 18 W 1015,7 27 21 0,0
17.06.2018 13:00:00 22,5 10,6 25,6 30,5 22,5 17,5 16 9 31 17 W 1015,7 37 46 0,0
17.06.2018 12:00:00 21,0 11,5 23,1 28,2 22,2 17,4 14 8 32 17 W 1015,9 21 38 0,0
17.06.2018 11:00:00 21,3 11,8 25,8 26,7 21,9 17,4 11 6 23 12 W 1015,9 19 46 0,0
17.06.2018 10:00:00 19,5 13,9 21,1 23,9 21,9 17,4 11 6 22 12 W 1016,1 21 3 0,0
17.06.2018 09:00:00 19,5 14,4 21,7 22,7 21,9 17,4 8 4 24 13 WNW 1015,5 20 23 0,0
17.06.2018 08:00:00 18,3 14,5 19,8 21,3 22,0 17,4 8 5 17 9 W 1014,9 18 41 0,0
17.06.2018 07:00:00 17,2 14,2 17,0 20,0 22,2 17,4 4 2 14 8 WNW 1014,6 21 20 0,0
17.06.2018 06:00:00 16,0 13,4 15,6 19,3 22,5 17,4 4 2 12 7 W 1014,5 20 7 0,0
17.06.2018 05:00:00 16,3 12,6 14,3 19,3 22,9 17,4 5 3 16 9 WNW 1014,3 26 0 0,0
17.06.2018 04:00:00 17,3 12,3 14,6 19,9 23,2 17,4 8 4 14 8 SSW 1013,3 27 0 0,0
17.06.2018 03:00:00 17,0 12,6 12,5 20,6 23,6 17,4 6 3 10 6 SSW 1013,4 22 0 0,0
17.06.2018 02:00:00 17,7 13,0 13,9 21,1 24,0 17,5 6 3 10 5 SSW 1013,5 24 0 0,0
17.06.2018 01:00:00 16,7 13,4 12,2 21,5 24,4 17,5 4 2 6 3 S 1013,7 25 0 0,0
17.06.2018 00:00:00 17,5 13,5 12,7 22,5 24,8 17,5 5 3 10 5 W 1013,9 31 0 0,0
16.06.2018 23:00:00 18,8 13,3 13,5 23,9 25,1 17,5 5 3 6 4 SSW 1013,9 44 0 0,0
16.06.2018 22:00:00 21,1 13,7 17,1 25,7 25,3 17,5 3 2 10 5 SSW 1013,6 10 6 0,0
16.06.2018 21:00:00 23,8 13,7 20,3 27,7 25,4 17,5 3 1 11 6 W 1013,2 70 49 0,0
16.06.2018 20:00:00 25,2 13,0 24,7 29,3 25,4 17,5 5 3 10 6 SSW 1013,2 67 3 0,0
16.06.2018 19:00:00 25,9 11,0 26,3 30,9 25,2 17,5 8 4 18 10 S 1013,1 64 2 0,0
16.06.2018 18:00:00 26,2 11,0 27,3 32,7 24,9 17,5 9 5 21 12 S 1013,3 70 48 0,0
16.06.2018 17:00:00 26,7 12,1 30,2 33,2 24,5 17,5 6 3 18 10 SSW 1013,6 65 28 0,0
16.06.2018 16:00:00 25,6 12,1 28,6 32,9 24,0 17,5 8 4 18 10 WSW 1014,0 47 11 0,0
16.06.2018 15:00:00 26,2 11,1 30,0 35,3 23,3 17,5 9 5 22 12 SSE 1014,2 38 52 0,0
16.06.2018 14:00:00 26,4 12,8 32,3 33,9 22,7 17,5 8 5 22 12 SSE 1015,0 31 53 0,0
16.06.2018 13:00:00 24,4 12,1 27,8 30,5 22,2 17,5 9 5 22 12 S 1015,7 42 5 0,0
16.06.2018 12:00:00 24,3 13,4 27,6 29,3 21,7 17,5 9 5 22 12 S 1015,9 30 4 0,0
16.06.2018 11:00:00 23,9 13,3 27,8 27,8 21,3 17,5 9 5 21 11 SSE 1016,1 17 21 0,0
16.06.2018 10:00:00 22,5 13,6 26,2 26,0 21,0 17,5 9 5 20 11 SSE 1016,3 17 60 0,0
16.06.2018 09:00:00 21,2 13,7 23,0 23,3 20,9 17,5 8 4 16 8 SSE 1016,4 25 45 0,0
16.06.2018 08:00:00 20,6 14,5 22,0 21,3 21,0 17,5 5 3 11 6 SSE 1016,3 19 58 0,0
16.06.2018 07:00:00 17,9 14,6 17,2 18,7 21,2 17,5 3 1 5 3 ESE 1016,5 14 27 0,0
16.06.2018 06:00:00 15,6 13,6 12,1 18,8 21,5 17,5 3 2 5 3 SE 1016,6 15 0 0,0
16.06.2018 05:00:00 16,7 13,9 15,0 19,3 21,7 17,5 3 2 8 4 NE 1016,8 18 0 0,0
16.06.2018 04:00:00 16,3 13,5 14,7 19,4 22,0 17,5 4 2 6 4 S 1016,9 22 0 0,0
16.06.2018 03:00:00 15,9 13,5 13,1 19,7 22,2 17,5 2 1 4 2 S 1016,9 25 0 0,0
16.06.2018 02:00:00 16,8 13,5 15,0 20,3 22,5 17,5 3 2 4 2 SSE 1017,0 25 0 0,0
16.06.2018 01:00:00 16,7 13,6 14,4 20,8 22,8 17,5 3 1 3 2 NW 1017,1 27 0 0,0
16.06.2018 00:00:00 17,9 13,1 15,1 21,8 23,0 17,5 3 1 5 3 NNE 1017,0 45 0 0,0
15.06.2018 23:00:00 18,8 13,9 17,1 22,6 23,2 17,5 4 2 5 3 NW 1017,1 41 0 0,0

tt = temperature
td = dewpoint
tt 5cm = temperature 5cm
tt -5cm = temperature -5cm
tt -20cm = temperature -20cm
tt -100cm = temperature -100cm
ff = wind speed
fx = gusts
dd = wind direction
ppp = reduced air pressure
vv = visibility
sd = sunshine duration
rr = precipitation

Next stations